Location: Borojevi?i
(45.0486°N, 16.2297°E)
Time: 23:05:20
(UTC+00:00)

ATLAS 5 CENTAUR R/B - Pass Details

Date: 08 August 2020
Orbit: 533 x 1125 km, 63.4° (Epoch: 19 September)

Event Time Altitude Azimuth Distance (km) Brightness Sun altitude
Rises 19:01:24 0° 322° (NW) 3,278 6.9 -8.5°
Reaches altitude 10° 19:03:40 10° 322° (NW) 2,431 5.9 -8.9°
Maximum altitude 19:09:24 89° 50° (NE) 933 2.4 -9.7°
Enters shadow 19:15:43 12° 143° (SE) 2,690 4.2 -10.6°
